Time,TemperatureF,DewpointF,PressureIn,WindDirection,WindDirectionDegrees,WindSpeedMPH,WindSpeedGustMPH,Humidity,HourlyPrecipIn,Conditions,Clouds,dailyrainin,SoftwareType,DateUTC
2013-05-02 00:02:00,66.1,59.4,30.06,SE,127,0.0,0.0,79,0.00,,CLR,0.00,VWS V14.01,2013-05-02 05:02:00,
2013-05-02 00:07:00,65.9,59.2,30.06,SE,127,0.0,0.0,79,0.00,,CLR,0.00,VWS V14.01,2013-05-02 05:07:00,
2013-05-02 00:12:00,65.8,59.5,30.06,SE,127,0.0,0.0,80,0.00,,CLR,0.00,VWS V14.01,2013-05-02 05:12:00,
2013-05-02 00:17:00,65.6,59.3,30.06,SE,127,0.0,0.0,80,0.00,,CLR,0.00,VWS V14.01,2013-05-02 05:17:00,
2013-05-02 00:22:00,65.5,59.2,30.06,SE,127,0.0,0.0,80,0.00,,CLR,0.00,VWS V14.01,2013-05-02 05:22:00,
2013-05-02 00:27:00,65.3,59.0,30.06,SE,127,0.0,0.0,80,0.00,,CLR,0.00,VWS V14.01,2013-05-02 05:27:00,
2013-05-02 00:32:00,65.1,58.8,30.06,SE,127,0.0,0.0,80,0.00,,CLR,0.00,VWS V14.01,2013-05-02 05:32:00,
2013-05-02 00:37:00,65.1,59.1,30.07,SE,127,0.0,0.0,81,0.00,,CLR,0.00,VWS V14.01,2013-05-02 05:37:00,
2013-05-02 00:42:00,64.9,58.9,30.06,SE,127,0.0,0.0,81,0.00,,CLR,0.00,VWS V14.01,2013-05-02 05:42:00,
2013-05-02 00:47:00,64.8,58.8,30.06,SE,127,0.0,0.0,81,0.00,,CLR,0.00,VWS V14.01,2013-05-02 05:47:00,
2013-05-02 00:52:00,64.6,58.7,30.06,SE,127,0.0,0.0,81,0.00,,CLR,0.00,VWS V14.01,2013-05-02 05:52:00,
2013-05-02 00:58:00,64.5,58.5,30.06,SE,127,0.0,0.0,81,0.00,,CLR,0.00,VWS V14.01,2013-05-02 05:58:00,
2013-05-02 01:03:00,64.3,58.3,30.06,SE,127,0.0,0.0,81,0.00,,CLR,0.00,VWS V14.01,2013-05-02 06:03:00,
2013-05-02 01:08:00,64.1,58.2,30.06,SE,127,0.0,0.0,81,0.00,,CLR,0.00,VWS V14.01,2013-05-02 06:08:00,
2013-05-02 01:13:00,63.9,58.3,30.06,SE,127,0.0,0.0,82,0.00,,CLR,0.00,VWS V14.01,2013-05-02 06:13:00,
2013-05-02 01:18:00,63.8,57.9,30.06,SE,127,0.0,0.0,81,0.00,,CLR,0.00,VWS V14.01,2013-05-02 06:18:00,
2013-05-02 01:23:00,63.7,58.1,30.06,SE,127,0.0,0.0,82,0.00,,CLR,0.00,VWS V14.01,2013-05-02 06:23:00,
2013-05-02 01:28:00,63.6,58.0,30.06,SE,127,0.0,0.0,82,0.00,,CLR,0.00,VWS V14.01,2013-05-02 06:28:00,
2013-05-02 01:33:00,63.4,57.8,30.06,SE,127,0.0,0.0,82,0.00,,CLR,0.00,VWS V14.01,2013-05-02 06:33:00,
2013-05-02 01:41:00,63.3,57.7,30.05,SE,127,0.0,0.0,82,0.00,,CLR,0.00,VWS V14.01,2013-05-02 06:41:00,
2013-05-02 01:48:00,63.1,57.5,30.05,SE,127,0.0,0.0,82,0.00,,CLR,0.00,VWS V14.01,2013-05-02 06:48:00,
2013-05-02 01:53:00,62.9,57.3,30.05,SE,127,0.0,0.0,82,0.00,,CLR,0.00,VWS V14.01,2013-05-02 06:53:00,
2013-05-02 01:58:00,62.8,57.2,30.05,SE,127,0.0,0.0,82,0.00,,CLR,0.00,VWS V14.01,2013-05-02 06:58:00,
2013-05-02 02:03:00,62.7,57.1,30.05,SE,127,0.0,0.0,82,0.00,,CLR,0.00,VWS V14.01,2013-05-02 07:03:00,
2013-05-02 02:08:00,62.6,57.0,30.05,SE,127,0.0,0.0,82,0.00,,CLR,0.00,VWS V14.01,2013-05-02 07:08:00,
2013-05-02 02:13:00,62.4,56.8,30.04,SE,127,0.0,0.0,82,0.00,,CLR,0.00,VWS V14.01,2013-05-02 07:13:00,
2013-05-02 02:18:00,62.2,56.6,30.04,SE,127,0.0,0.0,82,0.00,,CLR,0.00,VWS V14.01,2013-05-02 07:18:00,
2013-05-02 02:23:00,62.1,56.5,30.04,SE,127,0.0,0.0,82,0.00,,CLR,0.00,VWS V14.01,2013-05-02 07:23:00,
2013-05-02 02:28:00,62.0,56.5,30.04,SE,127,0.0,0.0,82,0.00,,CLR,0.00,VWS V14.01,2013-05-02 07:28:00,
2013-05-02 02:33:00,61.8,56.2,30.04,SE,127,0.0,0.0,82,0.00,,CLR,0.00,VWS V14.01,2013-05-02 07:33:00,
2013-05-02 02:38:00,61.7,56.2,30.04,SE,127,0.0,0.0,82,0.00,,CLR,0.00,VWS V14.01,2013-05-02 07:38:00,
2013-05-02 02:43:00,61.6,56.1,30.04,SE,127,0.0,0.0,82,0.00,,CLR,0.00,VWS V14.01,2013-05-02 07:43:00,
2013-05-02 02:48:00,61.6,56.1,30.04,SE,127,0.0,0.0,82,0.00,,CLR,0.00,VWS V14.01,2013-05-02 07:48:00,
2013-05-02 02:53:00,61.6,56.1,30.03,SE,127,0.0,0.0,82,0.00,,CLR,0.00,VWS V14.01,2013-05-02 07:53:00,
2013-05-02 02:58:00,61.7,56.2,30.03,SE,127,0.0,0.0,82,0.00,,CLR,0.00,VWS V14.01,2013-05-02 07:58:00,
2013-05-02 03:03:00,61.5,56.0,30.03,SE,127,0.0,0.0,82,0.00,,CLR,0.00,VWS V14.01,2013-05-02 08:03:00,
2013-05-02 03:08:00,61.3,55.8,30.03,SE,127,0.0,0.0,82,0.00,,CLR,0.00,VWS V14.01,2013-05-02 08:08:00,
2013-05-02 03:13:00,61.4,55.9,30.03,SE,127,0.0,0.0,82,0.00,,CLR,0.00,VWS V14.01,2013-05-02 08:13:00,
2013-05-02 03:18:00,61.4,55.9,30.03,SE,127,0.0,0.0,82,0.00,,CLR,0.00,VWS V14.01,2013-05-02 08:18:00,
2013-05-02 03:23:00,61.3,55.8,30.03,SE,127,0.0,0.0,82,0.00,,CLR,0.00,VWS V14.01,2013-05-02 08:23:00,
2013-05-02 03:28:00,61.2,55.7,30.03,SE,127,0.0,0.0,82,0.00,,CLR,0.00,VWS V14.01,2013-05-02 08:28:00,
2013-05-02 03:33:00,61.1,55.6,30.03,SE,127,0.0,0.0,82,0.00,,CLR,0.00,VWS V14.01,2013-05-02 08:33:00,
2013-05-02 03:38:00,60.9,55.4,30.03,SE,127,0.0,0.0,82,0.00,,CLR,0.00,VWS V14.01,2013-05-02 08:38:00,
2013-05-02 03:43:00,60.9,55.4,30.03,SE,127,0.0,0.0,82,0.00,,CLR,0.00,VWS V14.01,2013-05-02 08:43:00,
2013-05-02 03:48:00,60.9,55.4,30.04,SE,127,0.0,0.0,82,0.00,,CLR,0.00,VWS V14.01,2013-05-02 08:48:00,
2013-05-02 03:53:00,60.9,55.4,30.04,SE,127,0.0,0.0,82,0.00,,CLR,0.00,VWS V14.01,2013-05-02 08:53:00,
2013-05-02 03:58:00,60.8,55.3,30.04,SE,127,0.0,1.0,82,0.00,,CLR,0.00,VWS V14.01,2013-05-02 08:58:00,
2013-05-02 04:03:00,60.7,55.2,30.04,SE,127,0.0,0.0,82,0.00,,,0.00,VWS V14.01,2013-05-02 09:03:00,
2013-05-02 04:08:00,60.6,55.1,30.04,SE,127,0.0,0.0,82,0.00,,,0.00,VWS V14.01,2013-05-02 09:08:00,
2013-05-02 04:13:00,60.5,55.3,30.04,SE,127,0.0,0.0,83,0.00,,,0.00,VWS V14.01,2013-05-02 09:13:00,
2013-05-02 04:18:00,60.5,55.3,30.04,SE,127,0.0,0.0,83,0.00,,,0.00,VWS V14.01,2013-05-02 09:18:00,
2013-05-02 04:23:00,60.4,55.2,30.04,SE,127,0.0,0.0,83,0.00,,,0.00,VWS V14.01,2013-05-02 09:23:00,
2013-05-02 04:28:00,60.4,55.2,30.04,SE,127,0.0,0.0,83,0.00,,,0.00,VWS V14.01,2013-05-02 09:28:00,
2013-05-02 04:33:00,60.4,55.2,30.04,SE,127,0.0,0.0,83,0.00,,,0.00,VWS V14.01,2013-05-02 09:33:00,
2013-05-02 04:38:00,60.3,55.1,30.04,SE,127,0.0,0.0,83,0.00,,,0.00,VWS V14.01,2013-05-02 09:38:00,
2013-05-02 04:43:00,60.2,55.0,30.04,SE,127,0.0,0.0,83,0.00,,,0.00,VWS V14.01,2013-05-02 09:43:00,
2013-05-02 04:48:00,60.1,54.6,30.04,SE,127,0.0,0.0,82,0.00,,,0.00,VWS V14.01,2013-05-02 09:48:00,
2013-05-02 04:53:00,60.1,54.6,30.04,SE,127,0.0,0.0,82,0.00,,,0.00,VWS V14.01,2013-05-02 09:53:00,
2013-05-02 04:58:00,60.0,54.5,30.04,SE,127,0.0,0.0,82,0.00,,,0.00,VWS V14.01,2013-05-02 09:58:00,
2013-05-02 05:03:00,60.0,54.8,30.04,SE,127,0.0,0.0,83,0.00,,,0.00,VWS V14.01,2013-05-02 10:03:00,
2013-05-02 05:08:00,59.8,54.6,30.04,SE,127,0.0,0.0,83,0.00,,,0.00,VWS V14.01,2013-05-02 10:08:00,
2013-05-02 05:13:00,59.6,54.4,30.04,SE,127,0.0,0.0,83,0.00,,,0.00,VWS V14.01,2013-05-02 10:13:00,
2013-05-02 05:18:00,59.4,54.2,30.05,SE,127,0.0,0.0,83,0.00,,,0.00,VWS V14.01,2013-05-02 10:18:00,
2013-05-02 05:23:00,59.4,54.2,30.05,SE,127,0.0,0.0,83,0.00,,,0.00,VWS V14.01,2013-05-02 10:23:00,
2013-05-02 05:28:00,59.4,54.2,30.05,SE,127,0.0,0.0,83,0.00,,,0.00,VWS V14.01,2013-05-02 10:28:00,
2013-05-02 05:33:00,59.2,54.0,30.05,SE,127,0.0,0.0,83,0.00,,,0.00,VWS V14.01,2013-05-02 10:33:00,
2013-05-02 05:38:00,59.1,54.0,30.05,SE,127,0.0,0.0,83,0.00,,,0.00,VWS V14.01,2013-05-02 10:38:00,
2013-05-02 05:43:00,59.1,54.0,30.05,SE,127,0.0,0.0,83,0.00,,,0.00,VWS V14.01,2013-05-02 10:43:00,
2013-05-02 05:48:00,59.1,54.0,30.05,SE,127,0.0,0.0,83,0.00,,,0.00,VWS V14.01,2013-05-02 10:48:00,
2013-05-02 05:53:00,59.0,53.8,30.05,SE,127,0.0,0.0,83,0.00,,,0.00,VWS V14.01,2013-05-02 10:53:00,
2013-05-02 05:58:00,59.1,54.0,30.06,SE,127,0.0,0.0,83,0.00,,,0.00,VWS V14.01,2013-05-02 10:58:00,
2013-05-02 06:03:00,59.0,53.8,30.06,SE,127,0.0,0.0,83,0.00,,,0.00,VWS V14.01,2013-05-02 11:03:00,
2013-05-02 06:08:00,59.0,53.8,30.06,SE,127,0.0,0.0,83,0.00,,,0.00,VWS V14.01,2013-05-02 11:08:00,
2013-05-02 06:13:00,59.1,54.0,30.06,SE,127,0.0,0.0,83,0.00,,,0.00,VWS V14.01,2013-05-02 11:13:00,
2013-05-02 06:18:00,59.0,53.8,30.07,SE,127,0.0,0.0,83,0.00,,,0.00,VWS V14.01,2013-05-02 11:18:00,
2013-05-02 06:23:00,59.0,53.8,30.07,SE,127,0.0,0.0,83,0.00,,,0.00,VWS V14.01,2013-05-02 11:23:00,
2013-05-02 06:28:00,59.1,54.0,30.08,SE,127,0.0,0.0,83,0.00,,,0.00,VWS V14.01,2013-05-02 11:28:00,
2013-05-02 06:33:00,59.2,54.0,30.08,SE,127,0.0,0.0,83,0.00,,,0.00,VWS V14.01,2013-05-02 11:33:00,
2013-05-02 06:38:00,59.3,54.2,30.08,SE,127,0.0,0.0,83,0.00,,,0.00,VWS V14.01,2013-05-02 11:38:00,
2013-05-02 06:43:00,59.3,54.2,30.09,SE,127,0.0,0.0,83,0.00,,,0.00,VWS V14.01,2013-05-02 11:43:00,
2013-05-02 06:48:00,59.5,54.3,30.09,SE,127,0.0,0.0,83,0.00,,,0.00,VWS V14.01,2013-05-02 11:48:00,
2013-05-02 06:53:00,59.7,54.5,30.09,SE,127,0.0,0.0,83,0.00,,,0.00,VWS V14.01,2013-05-02 11:53:00,
2013-05-02 06:58:00,59.8,54.6,30.09,SE,127,0.0,0.0,83,0.00,,,0.00,VWS V14.01,2013-05-02 11:58:00,
2013-05-02 07:03:00,60.0,54.8,30.09,SE,127,0.0,0.0,83,0.00,,,0.00,VWS V14.01,2013-05-02 12:03:00,
2013-05-02 07:08:00,60.2,55.0,30.09,SE,127,0.0,0.0,83,0.00,,,0.00,VWS V14.01,2013-05-02 12:08:00,
2013-05-02 07:13:00,60.4,55.2,30.09,SE,127,0.0,0.0,83,0.00,,,0.00,VWS V14.01,2013-05-02 12:13:00,
2013-05-02 07:18:00,60.5,55.3,30.10,SE,127,0.0,0.0,83,0.00,,,0.00,VWS V14.01,2013-05-02 12:18:00,
2013-05-02 07:23:00,60.7,55.5,30.10,SE,127,0.0,0.0,83,0.00,,,0.00,VWS V14.01,2013-05-02 12:23:00,
2013-05-02 07:28:00,60.9,55.7,30.10,SE,127,0.0,0.0,83,0.00,,,0.00,VWS V14.01,2013-05-02 12:28:00,
2013-05-02 07:33:00,61.1,55.9,30.10,SE,127,0.0,0.0,83,0.00,,,0.00,VWS V14.01,2013-05-02 12:33:00,
2013-05-02 07:38:00,61.3,56.1,30.10,SE,127,0.0,0.0,83,0.00,,,0.00,VWS V14.01,2013-05-02 12:38:00,
2013-05-02 07:43:00,61.4,56.2,30.10,SE,127,0.0,0.0,83,0.00,,,0.00,VWS V14.01,2013-05-02 12:43:00,
2013-05-02 07:48:00,61.8,56.6,30.10,SE,127,0.0,0.0,83,0.00,,,0.00,VWS V14.01,2013-05-02 12:48:00,
2013-05-02 07:53:00,62.3,57.1,30.10,SE,127,0.0,0.0,83,0.00,,,0.00,VWS V14.01,2013-05-02 12:53:00,
2013-05-02 07:58:00,62.9,57.7,30.10,SE,127,0.0,1.0,83,0.00,,,0.00,VWS V14.01,2013-05-02 12:58:00,
2013-05-02 08:03:00,63.4,58.2,30.10,SE,127,0.0,0.0,83,0.00,,,0.00,VWS V14.01,2013-05-02 13:03:00,
2013-05-02 08:08:00,64.2,58.6,30.10,SE,127,0.0,1.0,82,0.00,,,0.00,VWS V14.01,2013-05-02 13:08:00,
2013-05-02 08:13:00,65.3,59.7,30.10,SSW,211,0.0,4.0,82,0.00,,CLR,0.00,VWS V14.01,2013-05-02 13:13:00,
2013-05-02 08:18:00,66.4,60.7,30.10,SSW,212,0.0,4.0,82,0.00,,CLR,0.00,VWS V14.01,2013-05-02 13:18:00,
2013-05-02 08:23:00,67.4,61.4,30.11,SSW,212,0.0,1.0,81,0.00,,CLR,0.00,VWS V14.01,2013-05-02 13:23:00,
2013-05-02 08:28:00,67.9,61.5,30.11,South,188,4.0,6.0,80,0.00,,CLR,0.00,VWS V14.01,2013-05-02 13:28:00,
2013-05-02 08:33:00,68.2,61.5,30.10,South,188,0.0,6.0,79,0.00,,CLR,0.00,VWS V14.01,2013-05-02 13:33:00,
2013-05-02 08:38:00,68.5,61.7,30.10,South,188,1.0,6.0,79,0.00,,CLR,0.00,VWS V14.01,2013-05-02 13:38:00,
2013-05-02 08:43:00,68.9,62.1,30.10,SW,215,2.0,4.0,79,0.00,,SCT100,0.00,VWS V14.01,2013-05-02 13:43:00,
2013-05-02 08:49:00,69.2,62.1,30.10,South,190,4.0,7.0,78,0.00,,SCT100,0.00,VWS V14.01,2013-05-02 13:49:00,
2013-05-02 08:54:00,69.6,62.1,30.10,SW,232,1.0,5.0,77,0.00,,SCT100,0.00,VWS V14.01,2013-05-02 13:54:00,
2013-05-02 08:59:00,70.1,62.6,30.10,SW,236,1.0,5.0,77,0.00,,SCT100,0.00,VWS V14.01,2013-05-02 13:59:00,
2013-05-02 09:04:00,70.7,62.4,30.10,WSW,248,2.0,8.0,75,0.00,,CLR,0.00,VWS V14.01,2013-05-02 14:04:00,
2013-05-02 09:09:00,71.2,62.5,30.09,SW,226,2.0,8.0,74,0.00,,CLR,0.00,VWS V14.01,2013-05-02 14:09:00,
2013-05-02 09:14:00,71.7,63.0,30.09,SW,228,6.0,7.0,74,0.00,,SCT080,0.00,VWS V14.01,2013-05-02 14:14:00,
2013-05-02 09:19:00,72.3,62.8,30.09,SW,228,3.0,7.0,72,0.00,,SCT080,0.00,VWS V14.01,2013-05-02 14:19:00,
2013-05-02 09:24:00,72.6,62.7,30.09,WSW,239,3.0,8.0,71,0.00,,SCT080,0.00,VWS V14.01,2013-05-02 14:24:00,
2013-05-02 09:29:00,72.7,62.0,30.09,WSW,243,2.0,9.0,69,0.00,,SCT080,0.00,VWS V14.01,2013-05-02 14:29:00,
2013-05-02 09:34:00,73.0,62.7,30.09,SW,234,5.0,7.0,70,0.00,,SCT080,0.00,VWS V14.01,2013-05-02 14:34:00,
2013-05-02 09:39:00,73.2,62.0,30.09,WSW,257,1.0,7.0,68,0.00,,SCT080,0.00,VWS V14.01,2013-05-02 14:39:00,
2013-05-02 09:44:00,73.6,62.8,30.09,SW,226,3.0,4.0,69,0.00,,CLR,0.00,VWS V14.01,2013-05-02 14:44:00,
2013-05-02 09:49:00,73.8,62.2,30.09,SW,229,3.0,7.0,67,0.00,,CLR,0.00,VWS V14.01,2013-05-02 14:49:00,
2013-05-02 09:54:00,73.5,62.3,30.09,SSW,209,0.0,6.0,68,0.00,,CLR,0.00,VWS V14.01,2013-05-02 14:54:00,
2013-05-02 09:59:00,73.2,61.2,30.09,WSW,254,5.0,9.0,66,0.00,,CLR,0.00,VWS V14.01,2013-05-02 14:59:00,
2013-05-02 10:04:00,73.3,62.5,30.09,WNW,289,4.0,4.0,69,0.00,,CLR,0.00,VWS V14.01,2013-05-02 15:04:00,
2013-05-02 10:09:00,73.6,62.8,30.09,WSW,258,0.0,5.0,69,0.00,,CLR,0.00,VWS V14.01,2013-05-02 15:09:00,
2013-05-02 10:14:00,74.4,63.2,30.09,South,180,4.0,4.0,68,0.00,,CLR,0.00,VWS V14.01,2013-05-02 15:14:00,
2013-05-02 10:19:00,74.8,63.5,30.10,WSW,249,3.0,8.0,68,0.00,,CLR,0.00,VWS V14.01,2013-05-02 15:19:00,
2013-05-02 10:24:00,74.7,62.2,30.09,SW,230,0.0,5.0,65,0.00,,CLR,0.00,VWS V14.01,2013-05-02 15:24:00,
2013-05-02 10:29:00,74.9,63.2,30.09,WSW,252,0.0,5.0,67,0.00,,CLR,0.00,VWS V14.01,2013-05-02 15:29:00,
2013-05-02 10:34:00,74.9,62.8,30.09,WSW,242,0.0,6.0,66,0.00,,CLR,0.00,VWS V14.01,2013-05-02 15:34:00,
2013-05-02 10:39:00,74.9,62.8,30.09,SW,233,6.0,7.0,66,0.00,,CLR,0.00,VWS V14.01,2013-05-02 15:39:00,
2013-05-02 10:44:00,75.2,63.1,30.09,WSW,251,0.0,4.0,66,0.00,,CLR,0.00,VWS V14.01,2013-05-02 15:44:00,
2013-05-02 10:49:00,75.9,63.3,30.09,WSW,248,4.0,6.0,65,0.00,,CLR,0.00,VWS V14.01,2013-05-02 15:49:00,
2013-05-02 10:54:00,76.2,63.6,30.09,SSW,202,1.0,3.0,65,0.00,,CLR,0.00,VWS V14.01,2013-05-02 15:54:00,
2013-05-02 10:59:00,76.4,63.3,30.08,SSW,205,0.0,4.0,64,0.00,,CLR,0.00,VWS V14.01,2013-05-02 15:59:00,
2013-05-02 11:04:00,76.9,64.2,30.08,WSW,248,3.0,4.0,65,0.00,,SCT060,0.00,VWS V14.01,2013-05-02 16:04:00,
2013-05-02 11:09:00,76.5,63.9,30.08,WSW,238,0.0,7.0,65,0.00,,SCT060,0.00,VWS V14.01,2013-05-02 16:09:00,
2013-05-02 11:14:00,77.0,63.9,30.08,WSW,248,1.0,7.0,64,0.00,,SCT060,0.00,VWS V14.01,2013-05-02 16:14:00,
2013-05-02 11:19:00,76.5,63.9,30.08,West,277,0.0,7.0,65,0.00,,SCT060,0.00,VWS V14.01,2013-05-02 16:19:00,
2013-05-02 11:24:00,77.1,64.4,30.08,SW,235,2.0,7.0,65,0.00,,SCT060,0.00,VWS V14.01,2013-05-02 16:24:00,
2013-05-02 11:29:00,76.9,65.1,30.08,SW,229,4.0,7.0,67,0.00,,SCT060,0.00,VWS V14.01,2013-05-02 16:29:00,
2013-05-02 11:34:00,77.0,63.5,30.07,WSW,246,0.0,2.0,63,0.00,,SCT060,0.00,VWS V14.01,2013-05-02 16:34:00,
2013-05-02 11:39:00,77.3,64.2,30.07,WSW,242,4.0,7.0,64,0.00,,SCT060,0.00,VWS V14.01,2013-05-02 16:39:00,
2013-05-02 11:44:00,77.2,64.1,30.07,South,188,1.0,3.0,64,0.00,,CLR,0.00,VWS V14.01,2013-05-02 16:44:00,
2013-05-02 11:49:00,77.5,64.4,30.07,SW,223,1.0,7.0,64,0.00,,CLR,0.00,VWS V14.01,2013-05-02 16:49:00,
2013-05-02 11:54:00,77.2,63.6,30.08,West,265,3.0,3.0,63,0.00,,CLR,0.00,VWS V14.01,2013-05-02 16:54:00,
2013-05-02 11:59:00,77.5,63.5,30.07,West,260,2.0,5.0,62,0.00,,CLR,0.00,VWS V14.01,2013-05-02 16:59:00,
2013-05-02 12:04:00,77.7,63.2,30.07,WSW,250,1.0,3.0,61,0.00,,CLR,0.00,VWS V14.01,2013-05-02 17:04:00,
2013-05-02 12:09:00,77.7,62.7,30.07,WSW,249,2.0,7.0,60,0.00,,CLR,0.00,VWS V14.01,2013-05-02 17:09:00,
2013-05-02 12:14:00,77.5,62.5,30.07,WSW,243,0.0,1.0,60,0.00,,CLR,0.00,VWS V14.01,2013-05-02 17:14:00,
2013-05-02 12:19:00,78.0,62.5,30.07,WSW,243,0.0,1.0,59,0.00,,CLR,0.00,VWS V14.01,2013-05-02 17:19:00,
2013-05-02 12:24:00,77.8,62.8,30.07,WSW,243,1.0,1.0,60,0.00,,CLR,0.00,VWS V14.01,2013-05-02 17:24:00,
2013-05-02 12:29:00,77.6,61.7,30.06,SW,236,0.0,6.0,58,0.00,,CLR,0.00,VWS V14.01,2013-05-02 17:29:00,
2013-05-02 12:34:00,77.6,62.2,30.06,South,178,2.0,5.0,59,0.00,,CLR,0.00,VWS V14.01,2013-05-02 17:34:00,
2013-05-02 12:39:00,78.4,62.9,30.06,WSW,247,0.0,5.0,59,0.00,,CLR,0.00,VWS V14.01,2013-05-02 17:39:00,
2013-05-02 12:44:00,78.4,62.4,30.06,WSW,250,0.0,4.0,58,0.00,,SCT065,0.00,VWS V14.01,2013-05-02 17:44:00,
2013-05-02 12:49:00,77.6,61.7,30.06,WSW,243,0.0,5.0,58,0.00,,SCT065,0.00,VWS V14.01,2013-05-02 17:49:00,
2013-05-02 12:54:00,78.0,63.0,30.06,WSW,243,0.0,1.0,60,0.00,,SCT065,0.00,VWS V14.01,2013-05-02 17:54:00,
2013-05-02 12:59:00,77.7,62.7,30.05,WSW,243,0.0,1.0,60,0.00,,SCT065,0.00,VWS V14.01,2013-05-02 17:59:00,
2013-05-02 13:04:00,77.6,62.2,30.05,WSW,243,0.0,2.0,59,0.00,,SCT065,0.00,VWS V14.01,2013-05-02 18:04:00,
2013-05-02 13:09:00,77.7,62.2,30.05,WSW,243,0.0,2.0,59,0.00,,SCT065,0.00,VWS V14.01,2013-05-02 18:09:00,
2013-05-02 13:14:00,78.2,64.1,30.04,WSW,243,0.0,1.0,62,0.00,,SCT065,0.00,VWS V14.01,2013-05-02 18:14:00,
2013-05-02 13:19:00,78.2,64.1,30.04,WSW,243,0.0,1.0,62,0.00,,SCT065,0.00,VWS V14.01,2013-05-02 18:19:00,
2013-05-02 13:24:00,77.7,64.1,30.04,WSW,243,0.0,1.0,63,0.00,,SCT065,0.00,VWS V14.01,2013-05-02 18:24:00,
2013-05-02 13:29:00,77.3,63.7,30.04,WSW,243,0.0,4.0,63,0.00,,SCT065,0.00,VWS V14.01,2013-05-02 18:29:00,
2013-05-02 13:34:00,76.9,64.2,30.04,WSW,243,0.0,2.0,65,0.00,,SCT065,0.00,VWS V14.01,2013-05-02 18:34:00,
2013-05-02 13:39:00,76.8,64.2,30.04,WSW,243,0.0,2.0,65,0.00,,SCT065,0.00,VWS V14.01,2013-05-02 18:39:00,
2013-05-02 13:44:00,76.9,63.8,30.05,WSW,243,0.0,0.0,64,0.00,,CLR,0.00,VWS V14.01,2013-05-02 18:44:00,
2013-05-02 13:49:00,77.0,63.5,30.04,WSW,243,1.0,1.0,63,0.00,,CLR,0.00,VWS V14.01,2013-05-02 18:49:00,
2013-05-02 13:54:00,77.0,63.9,30.04,WSW,243,0.0,1.0,64,0.00,,CLR,0.00,VWS V14.01,2013-05-02 18:54:00,
2013-05-02 13:59:00,77.2,64.1,30.04,WSW,243,1.0,1.0,64,0.00,,CLR,0.00,VWS V14.01,2013-05-02 18:59:00,
2013-05-02 14:04:00,77.1,64.0,30.04,WSW,243,0.0,0.0,64,0.00,,SCT044,0.00,VWS V14.01,2013-05-02 19:04:00,
2013-05-02 14:09:00,77.2,64.1,30.03,WSW,243,0.0,1.0,64,0.00,,SCT044,0.00,VWS V14.01,2013-05-02 19:09:00,
2013-05-02 14:14:00,77.5,63.9,30.03,WSW,243,0.0,2.0,63,0.00,,SCT044,0.00,VWS V14.01,2013-05-02 19:14:00,
2013-05-02 14:19:00,78.4,63.8,30.02,WSW,243,0.0,2.0,61,0.00,,SCT044,0.00,VWS V14.01,2013-05-02 19:19:00,
2013-05-02 14:24:00,79.2,63.7,30.03,ESE,117,2.0,5.0,59,0.00,,SCT044,0.00,VWS V14.01,2013-05-02 19:24:00,
2013-05-02 14:29:00,78.1,65.4,30.02,East,82,2.0,8.0,65,0.00,,SCT044,0.00,VWS V14.01,2013-05-02 19:29:00,
2013-05-02 14:34:00,77.0,64.3,30.02,ENE,59,2.0,7.0,65,0.00,,SCT044,0.00,VWS V14.01,2013-05-02 19:34:00,
2013-05-02 14:39:00,76.4,64.2,30.02,East,85,3.0,7.0,66,0.00,,SCT044,0.00,VWS V14.01,2013-05-02 19:39:00,
2013-05-02 14:44:00,76.0,64.7,30.02,ENE,75,3.0,6.0,68,0.00,,RA,0.00,VWS V14.01,2013-05-02 19:44:00,
2013-05-02 14:49:00,75.5,64.2,30.02,NE,53,2.0,6.0,68,0.00,,RA,0.00,VWS V14.01,2013-05-02 19:49:00,
2013-05-02 14:54:00,74.9,64.5,30.02,East,79,0.0,5.0,70,0.00,,RA,0.00,VWS V14.01,2013-05-02 19:54:00,
2013-05-02 14:59:00,74.6,64.6,30.01,ENE,77,0.0,5.0,71,0.00,,RA,0.00,VWS V14.01,2013-05-02 19:59:00,
2013-05-02 15:04:00,76.1,66.0,30.01,ENE,72,5.0,6.0,71,0.00,,-RA,0.00,VWS V14.01,2013-05-02 20:04:00,
2013-05-02 15:09:00,76.9,66.8,30.00,ENE,63,1.0,6.0,71,0.00,,-RA,0.00,VWS V14.01,2013-05-02 20:09:00,
2013-05-02 15:14:00,77.6,66.6,30.00,NE,42,1.0,5.0,69,0.00,,-RA,0.00,VWS V14.01,2013-05-02 20:14:00,
2013-05-02 15:19:00,77.3,66.8,30.00,SE,128,4.0,8.0,70,0.00,,-RA,0.00,VWS V14.01,2013-05-02 20:19:00,
2013-05-02 15:24:00,76.6,65.7,30.00,ESE,103,1.0,6.0,69,0.00,,-RA,0.00,VWS V14.01,2013-05-02 20:24:00,
2013-05-02 15:29:00,75.8,65.3,30.00,East,95,0.0,6.0,70,0.00,,-RA,0.00,VWS V14.01,2013-05-02 20:29:00,
2013-05-02 15:34:00,75.8,65.7,29.99,East,89,0.0,2.0,71,0.00,,-RA,0.00,VWS V14.01,2013-05-02 20:34:00,
2013-05-02 15:39:00,75.6,64.7,29.99,East,89,0.0,3.0,69,0.00,,-RA,0.00,VWS V14.01,2013-05-02 20:39:00,
2013-05-02 15:44:00,75.4,64.9,29.99,East,89,0.0,0.0,70,0.00,,SCT055,0.00,VWS V14.01,2013-05-02 20:44:00,
2013-05-02 15:49:00,75.5,65.4,29.99,East,89,0.0,0.0,71,0.00,,SCT055,0.00,VWS V14.01,2013-05-02 20:49:00,
2013-05-02 15:54:00,75.6,65.1,29.99,East,89,0.0,1.0,70,0.00,,SCT055,0.00,VWS V14.01,2013-05-02 20:54:00,
2013-05-02 15:59:00,75.5,65.8,29.99,East,89,0.0,1.0,72,0.00,,SCT055,0.00,VWS V14.01,2013-05-02 20:59:00,
2013-05-02 16:04:00,74.9,65.7,29.99,East,89,0.0,0.0,73,0.03,,SCT055,0.03,VWS V14.01,2013-05-02 21:04:00,
2013-05-02 16:09:00,73.7,66.1,30.00,SW,235,7.0,7.0,77,0.12,,SCT055,0.12,VWS V14.01,2013-05-02 21:09:00,
2013-05-02 16:14:00,69.9,62.7,30.02,SE,135,6.0,14.0,78,0.49,,SCT055,0.49,VWS V14.01,2013-05-02 21:14:00,
2013-05-02 16:19:00,67.1,60.4,30.01,NNE,33,0.0,14.0,79,0.79,,SCT055,0.79,VWS V14.01,2013-05-02 21:19:00,
2013-05-02 16:24:00,65.5,59.5,30.01,NNE,20,2.0,3.0,81,0.84,,SCT055,0.84,VWS V14.01,2013-05-02 21:24:00,
2013-05-02 16:29:00,64.9,58.9,30.00,North,355,0.0,3.0,81,0.84,,SCT055,0.84,VWS V14.01,2013-05-02 21:29:00,
2013-05-02 16:34:00,64.8,59.2,29.99,NNE,17,0.0,1.0,82,0.84,,SCT055,0.84,VWS V14.01,2013-05-02 21:34:00,
2013-05-02 16:39:00,64.8,59.2,30.00,NNE,17,0.0,2.0,82,0.84,,SCT055,0.84,VWS V14.01,2013-05-02 21:39:00,
2013-05-02 16:44:00,64.7,59.1,30.00,NNE,17,0.0,2.0,82,0.84,,OVC043,0.84,VWS V14.01,2013-05-02 21:44:00,
2013-05-02 16:49:00,64.5,58.9,30.00,NNE,17,1.0,2.0,82,0.84,,OVC043,0.84,VWS V14.01,2013-05-02 21:49:00,
2013-05-02 16:54:00,64.6,59.0,30.00,NNE,17,0.0,1.0,82,0.84,,OVC043,0.84,VWS V14.01,2013-05-02 21:54:00,
2013-05-02 16:59:00,64.7,59.1,30.00,NNE,17,0.0,1.0,82,0.84,,OVC043,0.84,VWS V14.01,2013-05-02 21:59:00,
2013-05-02 17:04:00,64.7,59.1,30.01,NNE,15,0.0,3.0,82,0.83,,OVC042,0.84,VWS V14.01,2013-05-02 22:04:00,
2013-05-02 17:09:00,64.7,59.1,30.01,North,10,0.0,5.0,82,0.83,,OVC042,0.84,VWS V14.01,2013-05-02 22:09:00,
2013-05-02 17:14:00,64.8,59.2,30.01,North,10,0.0,4.0,82,0.62,,OVC042,0.84,VWS V14.01,2013-05-02 22:14:00,
2013-05-02 17:19:00,65.0,59.4,30.01,North,10,0.0,4.0,82,0.62,,OVC042,0.84,VWS V14.01,2013-05-02 22:19:00,
2013-05-02 17:24:00,65.2,59.6,30.01,North,5,0.0,6.0,82,0.01,,OVC042,0.84,VWS V14.01,2013-05-02 22:24:00,
2013-05-02 17:29:00,65.2,59.6,30.01,North,5,0.0,6.0,82,0.01,,OVC042,0.84,VWS V14.01,2013-05-02 22:29:00,
2013-05-02 17:34:00,65.2,59.6,30.01,North,5,0.0,2.0,82,0.00,,OVC042,0.84,VWS V14.01,2013-05-02 22:34:00,
2013-05-02 17:39:00,65.2,59.6,30.00,North,351,0.0,4.0,82,0.00,,OVC042,0.84,VWS V14.01,2013-05-02 22:39:00,
2013-05-02 17:44:00,65.2,59.9,30.00,NW,315,1.0,5.0,83,0.00,,BKN075,0.84,VWS V14.01,2013-05-02 22:44:00,
2013-05-02 17:49:00,65.1,59.8,30.00,North,355,2.0,9.0,83,0.00,,BKN075,0.84,VWS V14.01,2013-05-02 22:49:00,
2013-05-02 17:54:00,65.0,59.7,30.00,North,355,0.0,3.0,83,0.00,,BKN075,0.84,VWS V14.01,2013-05-02 22:54:00,
2013-05-02 17:59:00,65.1,59.8,30.00,North,355,3.0,5.0,83,0.00,,BKN075,0.84,VWS V14.01,2013-05-02 22:59:00,
2013-05-02 18:04:00,65.1,59.8,30.01,North,355,0.0,3.0,83,0.00,,BKN090,0.84,VWS V14.01,2013-05-02 23:04:00,
2013-05-02 18:09:00,65.1,59.8,30.01,North,351,1.0,3.0,83,0.00,,BKN090,0.84,VWS V14.01,2013-05-02 23:09:00,
2013-05-02 18:15:00,65.1,59.8,30.02,West,279,4.0,5.0,83,0.00,,BKN090,0.84,VWS V14.01,2013-05-02 23:15:00,
2013-05-02 18:20:00,65.0,59.7,30.03,WSW,246,4.0,6.0,83,0.00,,BKN090,0.84,VWS V14.01,2013-05-02 23:20:00,
2013-05-02 18:25:00,64.3,58.7,30.03,WSW,254,4.0,11.0,82,0.04,,BKN090,0.88,VWS V14.01,2013-05-02 23:25:00,
2013-05-02 18:30:00,63.5,58.2,30.02,West,265,0.0,11.0,83,0.18,,BKN090,1.02,VWS V14.01,2013-05-02 23:30:00,
2013-05-02 18:35:00,63.4,58.2,30.02,West,267,0.0,3.0,83,0.24,,BKN090,1.08,VWS V14.01,2013-05-02 23:35:00,
2013-05-02 18:40:00,63.4,58.2,30.03,West,267,0.0,3.0,83,0.25,,BKN090,1.09,VWS V14.01,2013-05-02 23:40:00,
2013-05-02 18:45:00,63.2,58.0,30.03,West,267,0.0,0.0,83,0.25,,OVC050,1.09,VWS V14.01,2013-05-02 23:45:00,
2013-05-02 18:50:00,63.1,57.9,30.03,West,267,0.0,0.0,83,0.25,,OVC050,1.09,VWS V14.01,2013-05-02 23:50:00,
2013-05-02 18:55:00,63.1,57.9,30.04,West,266,2.0,5.0,83,0.25,,OVC050,1.09,VWS V14.01,2013-05-02 23:55:00,
2013-05-02 19:00:00,62.7,57.5,30.04,West,260,6.0,7.0,83,0.27,,OVC050,1.11,VWS V14.01,2013-05-03 00:00:00,
2013-05-02 19:05:00,61.9,56.7,30.04,West,265,0.0,10.0,83,0.31,,-RA,1.15,VWS V14.01,2013-05-03 00:05:00,
2013-05-02 19:10:00,61.6,56.4,30.04,West,277,0.0,10.0,83,0.33,,-RA,1.17,VWS V14.01,2013-05-03 00:10:00,
2013-05-02 19:15:00,61.4,56.2,30.04,West,277,0.0,3.0,83,0.36,,-RA,1.20,VWS V14.01,2013-05-03 00:15:00,
2013-05-02 19:20:00,61.3,56.1,30.04,NNW,341,1.0,3.0,83,0.40,,-RA,1.24,VWS V14.01,2013-05-03 00:20:00,
2013-05-02 19:25:00,61.2,56.0,30.04,NNW,341,0.0,1.0,83,0.40,,RA,1.24,VWS V14.01,2013-05-03 00:25:00,
2013-05-02 19:30:00,61.3,56.1,30.05,NNW,341,0.0,1.0,83,0.42,,RA,1.26,VWS V14.01,2013-05-03 00:30:00,
2013-05-02 19:35:00,61.3,56.1,30.04,NNW,341,0.0,0.0,83,0.21,,RA,1.26,VWS V14.01,2013-05-03 00:35:00,
2013-05-02 19:40:00,61.4,56.2,30.04,NNW,341,2.0,2.0,83,0.22,,RA,1.27,VWS V14.01,2013-05-03 00:40:00,
2013-05-02 19:45:00,61.4,56.2,30.04,NNW,344,0.0,1.0,83,0.18,, +RA,1.27,VWS V14.01,2013-05-03 00:45:00,
2013-05-02 19:50:00,61.3,56.1,30.04,NNW,344,0.0,3.0,83,0.18,, +RA,1.27,VWS V14.01,2013-05-03 00:50:00,
2013-05-02 19:55:00,61.2,56.0,30.04,NNW,344,0.0,1.0,83,0.18,, +RA,1.27,VWS V14.01,2013-05-03 00:55:00,
2013-05-02 20:00:00,61.1,55.9,30.04,NNW,344,0.0,1.0,83,0.18,, +RA,1.27,VWS V14.01,2013-05-03 01:00:00,
2013-05-02 20:05:00,61.1,55.9,30.04,NNW,344,0.0,0.0,83,0.16,,-RA,1.28,VWS V14.01,2013-05-03 01:05:00,
2013-05-02 20:10:00,61.1,55.9,30.05,NNW,344,1.0,3.0,83,0.16,,-RA,1.28,VWS V14.01,2013-05-03 01:10:00,
2013-05-02 20:15:00,60.4,55.2,30.05,NNW,346,0.0,2.0,83,0.10,,-RA,1.28,VWS V14.01,2013-05-03 01:15:00,
2013-05-02 20:20:00,59.7,54.5,30.05,NNW,346,2.0,4.0,83,0.10,,-RA,1.28,VWS V14.01,2013-05-03 01:20:00,
2013-05-02 20:25:00,59.4,54.2,30.05,NNW,342,0.0,4.0,83,0.04,,-RA,1.28,VWS V14.01,2013-05-03 01:25:00,
2013-05-02 20:30:00,59.1,54.0,30.05,WNW,299,0.0,4.0,83,0.04,,-RA,1.28,VWS V14.01,2013-05-03 01:30:00,
2013-05-02 20:35:00,58.9,53.8,30.05,NW,319,0.0,4.0,83,0.02,,-RA,1.28,VWS V14.01,2013-05-03 01:35:00,
2013-05-02 20:40:00,58.7,53.6,30.05,NW,323,1.0,4.0,83,0.02,,-RA,1.28,VWS V14.01,2013-05-03 01:40:00,
2013-05-02 20:45:00,58.5,53.4,30.05,NNW,328,0.0,5.0,83,0.01,,OVC055,1.28,VWS V14.01,2013-05-03 01:45:00,
2013-05-02 20:50:00,58.0,52.9,30.05,NNW,343,0.0,5.0,83,0.01,,OVC055,1.28,VWS V14.01,2013-05-03 01:50:00,
2013-05-02 20:55:00,57.8,52.7,30.05,NNW,343,0.0,2.0,83,0.01,,OVC055,1.28,VWS V14.01,2013-05-03 01:55:00,
2013-05-02 21:00:00,57.6,52.5,30.06,North,350,0.0,5.0,83,0.01,,OVC055,1.28,VWS V14.01,2013-05-03 02:00:00,
2013-05-02 21:05:00,57.5,52.7,30.06,North,355,2.0,3.0,84,0.01,,-RA,1.28,VWS V14.01,2013-05-03 02:05:00,
2013-05-02 21:10:00,57.3,52.2,30.06,North,355,0.0,4.0,83,0.01,,-RA,1.28,VWS V14.01,2013-05-03 02:10:00,
2013-05-02 21:15:00,57.2,52.1,30.06,North,350,2.0,3.0,83,0.00,,-RA,1.28,VWS V14.01,2013-05-03 02:15:00,
2013-05-02 21:20:00,57.1,52.0,30.06,North,355,5.0,5.0,83,0.00,,-RA,1.28,VWS V14.01,2013-05-03 02:20:00,
2013-05-02 21:25:00,56.8,52.0,30.06,NNW,348,2.0,4.0,84,0.00,,-RA,1.28,VWS V14.01,2013-05-03 02:25:00,
2013-05-02 21:30:00,56.6,51.5,30.06,NNW,348,0.0,4.0,83,0.00,,-RA,1.28,VWS V14.01,2013-05-03 02:30:00,
2013-05-02 21:35:00,56.5,51.4,30.06,NNW,348,1.0,1.0,83,0.00,,-RA,1.28,VWS V14.01,2013-05-03 02:35:00,
2013-05-02 21:40:00,56.4,51.6,30.07,North,350,0.0,2.0,84,0.00,,-RA,1.28,VWS V14.01,2013-05-03 02:40:00,
2013-05-02 21:45:00,56.3,51.5,30.07,North,351,0.0,1.0,84,0.00,,OVC012,1.28,VWS V14.01,2013-05-03 02:45:00,
2013-05-02 21:50:00,56.1,51.3,30.06,NNW,347,1.0,4.0,84,0.00,,OVC012,1.28,VWS V14.01,2013-05-03 02:50:00,
2013-05-02 21:55:00,55.9,51.1,30.06,NNW,348,0.0,3.0,84,0.00,,OVC012,1.28,VWS V14.01,2013-05-03 02:55:00,
2013-05-02 22:00:00,55.7,51.0,30.07,NNW,348,0.0,3.0,84,0.00,,OVC012,1.28,VWS V14.01,2013-05-03 03:00:00,
2013-05-02 22:05:00,55.6,50.8,30.07,NNW,348,0.0,0.0,84,0.00,,OVC010,1.28,VWS V14.01,2013-05-03 03:05:00,
2013-05-02 22:10:00,55.4,50.7,30.07,NNW,344,0.0,5.0,84,0.00,,OVC010,1.28,VWS V14.01,2013-05-03 03:10:00,
2013-05-02 22:15:00,55.2,50.5,30.07,NNW,338,1.0,3.0,84,0.00,,OVC010,1.28,VWS V14.01,2013-05-03 03:15:00,
2013-05-02 22:20:00,55.0,50.3,30.07,NNW,327,0.0,7.0,84,0.00,,OVC010,1.28,VWS V14.01,2013-05-03 03:20:00,
2013-05-02 22:25:00,54.8,50.1,30.06,NNW,328,1.0,4.0,84,0.00,,OVC010,1.28,VWS V14.01,2013-05-03 03:25:00,
2013-05-02 22:30:00,54.6,49.9,30.06,NNW,328,1.0,4.0,84,0.00,,OVC010,1.28,VWS V14.01,2013-05-03 03:30:00,
2013-05-02 22:35:00,54.4,49.7,30.06,NNW,328,0.0,3.0,84,0.00,,OVC010,1.28,VWS V14.01,2013-05-03 03:35:00,
2013-05-02 22:40:00,54.1,49.4,30.06,NNW,333,0.0,5.0,84,0.00,,OVC010,1.28,VWS V14.01,2013-05-03 03:40:00,
2013-05-02 22:45:00,54.0,49.3,30.06,NNW,333,0.0,3.0,84,0.00,,OVC010,1.28,VWS V14.01,2013-05-03 03:45:00,
2013-05-02 22:50:00,54.0,49.3,30.06,NNW,335,0.0,3.0,84,0.00,,OVC010,1.28,VWS V14.01,2013-05-03 03:50:00,
2013-05-02 22:55:00,54.0,49.3,30.06,NNW,335,0.0,2.0,84,0.00,,OVC010,1.28,VWS V14.01,2013-05-03 03:55:00,
2013-05-02 23:00:00,54.0,49.3,30.05,NNW,335,0.0,2.0,84,0.00,,OVC010,1.28,VWS V14.01,2013-05-03 04:00:00,
2013-05-02 23:01:00,54.0,49.3,30.05,NNW,335,0.0,2.0,84,0.00,,OVC012,1.28,VWS V14.01,2013-05-03 04:01:00,
2013-05-02 23:05:00,54.0,49.3,30.05,NNW,335,0.0,2.0,84,0.00,,OVC012,1.28,VWS V14.01,2013-05-03 04:05:00,
2013-05-02 23:10:00,53.8,49.1,30.05,NNW,336,0.0,4.0,84,0.00,,OVC012,1.28,VWS V14.01,2013-05-03 04:10:00,
2013-05-02 23:11:00,53.8,49.1,30.05,NNW,336,0.0,4.0,84,0.00,,OVC012,1.28,VWS V14.01,2013-05-03 04:11:00,
2013-05-02 23:15:00,53.6,48.9,30.05,NNW,336,1.0,4.0,84,0.00,,OVC012,1.28,VWS V14.01,2013-05-03 04:15:00,
2013-05-02 23:20:00,53.3,48.6,30.05,NNW,348,3.0,7.0,84,0.00,,OVC012,1.28,VWS V14.01,2013-05-03 04:20:00,
2013-05-02 23:21:00,53.3,48.6,30.05,NNW,348,2.0,7.0,84,0.00,,OVC012,1.28,VWS V14.01,2013-05-03 04:21:00,
2013-05-02 23:30:00,53.2,48.5,30.04,NNW,348,0.0,4.0,84,0.00,,OVC012,1.28,VWS V14.01,2013-05-03 04:30:00,
2013-05-02 23:35:00,53.2,48.5,30.04,NNW,348,0.0,1.0,84,0.00,,OVC012,1.28,VWS V14.01,2013-05-03 04:35:00,
2013-05-02 23:40:00,53.3,48.6,30.04,NNW,348,0.0,2.0,84,0.00,,OVC012,1.28,VWS V14.01,2013-05-03 04:40:00,
2013-05-02 23:45:00,53.2,48.5,30.04,NNW,348,0.0,1.0,84,0.00,,OVC010,1.28,VWS V14.01,2013-05-03 04:45:00,
2013-05-02 23:50:00,53.2,48.5,30.03,NNW,348,0.0,1.0,84,0.00,,OVC010,1.28,VWS V14.01,2013-05-03 04:50:00,
2013-05-02 23:55:00,53.1,48.4,30.04,NNW,340,0.0,3.0,84,0.00,,OVC010,1.28,VWS V14.01,2013-05-03 04:55:00,